DW6554 Weather Reports


time (UTC)temp
F
wind
direction
speed
knots
gust
knots
rain 1hr
in
rain 24hr
in
rain mn
in
humidity
%
barometer
mb
20260502190041 52 301 2.6 7.8 0.00 0.07 0.07 82 1011.6
20260502184547 53 290 1.7 3.5 0.00 0.07 0.07 82 1011.4
20260502183059 53 216 0.9 3.5 0.00 0.07 0.07 83 1011.3
20260502181542 53 152 0.9 2.6 0.00 0.07 0.07 84 1011.5
20260502163027 51 202 0.9 2.6 0.00 0.07 0.07 84 1012.0
20260502161525 51 140 0.0 0.0 0.00 0.07 0.07 84 1012.1
20260502151522 51 150 0.0 0.9 0.00 0.07 0.07 88 1012.7
20260502123014 46 44 0.0 0.0 0.06 0.06 0.06 95 1013.0
20260502121511 46 260 0.0 0.0 0.04 0.04 0.04 94 1013.8
20260502114508 46 305 0.0 0.0 0.00 0.00 0.00 94 1013.6
20260502113007 46 305 0.0 0.0 0.00 0.00 0.00 94 1013.4
20260502111515 46 311 0.0 0.0 0.00 0.00 0.00 94 1013.3
20260502110009 45 351 0.0 0.0 0.00 0.00 0.00 93 1012.5
20260502104504 45 351 0.0 0.9 0.00 0.00 0.00 93 1012.3
20260502103003 45 343 0.0 1.7 0.00 0.00 0.00 92 1012.6
20260502101503 45 100 0.0 0.0 0.00 0.00 0.00 91 1012.6
20260502070039 47 88 0.0 1.7 0.00 0.00 0.00 81 1012.6
20260502064537 47 81 0.0 1.7 0.00 0.00 0.00 81 1012.6
20260502063036 48 76 0.0 1.7 0.00 0.00 0.00 80 1012.6
20260502061539 48 44 0.0 0.0 0.00 0.00 0.00 79 1012.8
20260502060033 48 44 0.0 0.0 0.00 0.00 0.00 80 1012.9
20260502054532 48 44 0.0 0.0 0.00 0.00 0.00 79 1013.0
20260502053031 48 44 0.0 0.0 0.00 0.00 0.00 78 1012.9
20260502051533 48 44 0.0 0.0 0.00 0.00 0.00 78 1013.1
20260502050036 48 44 0.0 0.0 0.00 0.00 0.00 77 1013.1
20260502044527 49 44 0.0 0.0 0.00 0.00 0.00 75 1013.1
20260502043026 49 44 0.0 0.0 0.00 0.00 0.00 75 1013.0
20260502041532 49 44 0.0 1.7 0.00 0.00 0.00 75 1013.1
20260502040022 49 44 0.0 0.0 0.00 0.00 0.00 74 1013.2
20260502034522 50 44 0.0 1.7 0.00 0.00 0.00 72 1013.2
20260502033025 50 86 0.0 0.0 0.00 0.00 0.00 70 1013.2
20260502031521 51 85 0.0 0.9 0.00 0.00 0.00 69 1013.2
20260502030021 51 85 0.0 0.9 0.00 0.00 0.00 69 1013.3
20260502024519 51 190 0.0 1.7 0.00 0.00 0.00 66 1013.3
20260502023019 51 190 0.0 1.7 0.00 0.00 0.00 65 1013.1
20260502021520 52 162 0.0 1.7 0.00 0.00 0.00 63 1013.1
20260502020018 51 181 0.0 0.9 0.00 0.00 0.00 61 1013.2
20260502014525 51 181 0.0 1.7 0.00 0.00 0.00 59 1013.2
20260502013016 51 143 0.0 1.7 0.00 0.00 0.00 58 1013.0
20260502011515 52 192 0.9 2.6 0.00 0.00 0.00 56 1012.9
20260502010012 53 263 0.0 1.7 0.00 0.00 0.00 59 1012.6
20260502004510 53 315 0.0 0.0 0.00 0.00 0.00 51 1012.3
20260502003009 53 315 0.0 0.0 0.00 0.00 0.00 50 1012.1
20260502001509 54 315 0.0 0.0 0.00 0.00 0.00 49 1011.9
20260502000009 55 315 0.0 0.0 0.00 0.00 0.00 47 1011.6
20260501234508 57 315 0.0 0.0 0.00 0.00 0.00 44 1011.5
20260501233008 58 315 0.0 0.9 0.00 0.00 0.00 44 1011.4
20260501231507 59 288 0.9 2.6 0.00 0.00 0.00 39 1011.2
20260501230010 60 300 0.9 4.3 0.00 0.00 0.00 39 1010.9
20260501224506 61 260 0.0 3.5 0.00 0.00 0.00 38 1010.8
20260501223006 61 225 0.9 5.2 0.00 0.00 0.00 38 1010.8
20260501221505 61 298 2.6 5.2 0.00 0.00 0.00 37 1010.8
20260501220005 61 315 1.7 7.0 0.00 0.00 0.00 37 1011.0
20260501214507 62 247 2.6 4.3 0.00 0.00 0.00 37 1010.7
20260501213004 62 240 2.6 4.3 0.00 0.00 0.00 36 1010.7
20260501211504 61 311 1.7 3.5 0.00 0.00 0.00 38 1010.7
20260501210003 62 280 2.6 6.1 0.00 0.00 0.00 35 1010.6
20260501204503 62 280 1.7 5.2 0.00 0.00 0.00 36 1010.6
20260501203002 62 265 3.5 7.0 0.00 0.00 0.00 36 1010.5
20260501201502 62 342 3.5 7.0 0.00 0.00 0.00 35 1010.5
20260501200002 62 297 3.5 7.8 0.00 0.00 0.00 33 1010.4
20260501194600 61 269 2.6 7.0 0.00 0.00 0.00 36 1010.5
20260501193100 61 311 1.7 6.1 0.00 0.00 0.00 38 1010.7
20260501191602 60 240 1.7 8.7 0.00 0.00 0.00 37 1010.8